sat.trackr.live / text

‹ back to catalog

STARLINK-5765

NORAD 57147 · 2023-090AY

PAYLOAD ACTIVE UNKNOWN

§ Identity

Operator
Country
US
Launch date
2023-06-23
Launch site
AFETR
Launch vehicle
Mass (kg)
RCS (m²)

Purposes: comms

External: N2YO · Heavens-Above · Gunter

§ Orbital elements

Epoch: 2026-05-25T03:35:11.054400Z

Period
94.27 min
Inclination
43.0007°
Eccentricity
0.0001217
Mean motion
15.27579673 rev/d
Perigee alt
482.2 km
Apogee alt
483.9 km
Semi-major
6,861.2 km
B*
5.4580e-5
RAAN
191.8064°
Arg perigee
272.6302°
Mean anomaly
87.4410°
Rev number
16,223

§ Raw data

STARLINK-57651 57147U 23090AY  26145.14943350  .00001240  00000+0  54580-4 0  99972 57147  43.0007 191.8064 0001217 272.6302  87.4410 15.27579673162232

JSON: /api/v1/satellites/57147 · /tle

For live sub-satellite position, see the globe view (requires WebGL).

§ Visibility from observer

Set your observer location to see the next 7 days of passes ≥ 10°. The values pass through the URL so the page stays shareable.

No JS? Fill the form by hand. The geolocation button needs JavaScript.